Regional Weather Roundup
Issued by NWS Cleveland, OH

Home | Current Version | Previous Version | Text Only | Print | Product List | Glossary Off
Versions: 1 2 3 4 5 6 7 8 9 10 11 12 13 14 15 16 17 18 19 20 21 22 23 24 25 26 27 28 29 30 31 32 33 34 35 36 37 38 39 40 41 42 43 44 45 46 47 48 49 50

000
ASUS41 KCLE 232210
RWRCLE
OHIO REGIONAL WEATHER ROUNDUP
NATIONAL WEATHER SERVICE CLEVELAND, OH
500 PM EST TUE JAN 23 2018

NOTE: "FAIR" INDICATES FEW OR NO CLOUDS BELOW 12,000 FEET WITH NO
SIGNIFICANT WEATHER AND/OR OBSTRUCTIONS TO VISIBILITY.

OHZ001>008-015>018-024>027-034-035-043-044-232300-
   NORTHWEST OHIO

CITY           SKY/WX    TMP DP  RH WIND       PRES   REMARKS
DEFIANCE       CLOUDY    33  26  75 W10G20    29.87R WCI  25
FINDLAY        CLOUDY    35  28  75 W22G37    29.84R WCI  23
TOLEDO EXPRESS CLOUDY    34  29  82 W21G29    29.81R WCI  22
TOLEDO EXEC    CLOUDY    35  27  72 W17       29.81R WCI  25
LIMA           CLOUDY    33  30  88 W20G32    29.87R WCI  21
$$

OHZ009>014-019>023-028>033-038-089-232300-
   NORTHEAST OHIO

CITY           SKY/WX    TMP DP  RH WIND       PRES   REMARKS
CLE-HOPKINS    CLOUDY    37  32  82 W23G32    29.79R
CLE-LAKEFRONT  CLOUDY    36  30  79 W24G32    29.75R
CUY CO. ARPT   CLOUDY    36  32  87 SW21G30   29.75R
LORAIN-ELYRIA  CLOUDY    35  28  75 W20G28    29.78R WCI  24
ASHTABULA      CLOUDY    37  32  82 SW17      29.70R
AKRON-CANTON   LGT RAIN  36  31  82 W20G29    29.77R
WOOSTER        CLOUDY    36  32  85 W15G26    29.79R
MANSFIELD      LGT SNOW  34  33  96 W13G24    29.80R FOG     WCI  25
YOUNGSTOWN     LGT RAIN  37  29  72 SW21G32   29.73R
$$

OHZ042-051>053-060>062-070>072-077>081-232300-
  SOUTHWEST OHIO

CITY           SKY/WX    TMP DP  RH WIND       PRES   REMARKS
CINC-COVINGTON CLOUDY    38  33  82 W13G21    29.96R
CINC-LUNKEN    CLOUDY    40  33  76 W15G24    29.98R
HAMILTON       CLOUDY    39  34  82 W8G23     29.96R
DAYTON         CLOUDY    35  34  96 W18       29.93R WCI  24
WRIGHT-PAT AFB CLOUDY    36  36 100 W13       29.93R
DAYTON GENERAL LGT RAIN  37  34  89 W13       29.92R
WILMINGTON     CLOUDY    37  34  89 W21       29.92R
$$

OHZ036-037-039>041-045>050-054>059-063>069-073>076-082>088-232300-
  CENTRAL AND SOUTHEAST OHIO

CITY           SKY/WX    TMP DP  RH WIND       PRES   REMARKS
COLUMBUS       DRIZZLE   39  35  86 SW16G24   29.88R
OSU AIRPORT    CLOUDY    38  35  89 W18G25    29.87R
BOLTON FIELD   CLOUDY    37  36  93 W14G21    29.89R
RICKENBACK AFB CLOUDY    37  35  91 W21G32    29.90R
NEWARK         CLOUDY    39  33  79 SW15G25   29.86R
MARION         CLOUDY    36  31  82 W20G33    29.85R
LANCASTER      CLOUDY    39  33  79 W18G31    29.90R
ZANESVILLE     CLOUDY    40  31  70 W20G28    29.86R
NEW PHILLY     NOT AVBL
$$




USA.gov is the U.S. government's official web portal to all federal, state and local government web resources and services.